Location: Les Chemineaux
(47.3024°N, 1.5104°E)
Time: 07:26:17
(UTC+00:00)

BlueWalker 3 - Pass Details

Date: 19 May 2025
Orbit: 460 x 472 km, 53.2° (Epoch: 18 June)

Event Time Altitude Azimuth Distance (km) Brightness Sun altitude
Rises 21:03:34 0° 299° (WNW) 2,495 6.9 -13.0°
Reaches altitude 10° 21:05:43 10° 300° (WNW) 1,619 5.7 -13.2°
Maximum altitude 21:09:22 79° 28° (NNE) 480 1.8 -13.6°
Enters shadow 21:11:36 22° 113° (ESE) 1,060 3.1 -13.8°
